CW2157 Weather Reports


Display with metric or nautical units.
time (UTC)temp
F
wind
direction
speed
MPH
gust
MPH
rain 1hr
in
rain 24hr
in
rain mn
in
humidity
%
barometer
mb
20260905164705 81 0 3.0 6.0 0.00 0.00 0.00 65 1010.0
20260905164205 81 21 3.0 9.0 0.00 0.00 0.00 65 1010.0
20260905163705 81 48 4.0 8.0 0.00 0.00 0.00 67 1010.0
20260905162705 81 337 4.0 8.0 0.00 0.00 0.00 63 1010.3
20260905161705 81 344 4.0 8.0 0.00 0.00 0.00 63 1010.4
20260905161205 82 350 4.0 8.0 0.00 0.00 0.00 63 1010.5
20260905160705 81 347 3.0 8.0 0.00 0.00 0.00 66 1010.4
20260905160205 81 7 3.0 8.0 0.00 0.00 0.00 68 1010.4
20260905155705 81 58 3.0 6.0 0.00 0.00 0.00 65 1010.4
20260905155205 81 338 3.0 9.0 0.00 0.00 0.00 65 1010.3
20260905154705 81 39 3.0 7.0 0.00 0.00 0.00 66 1010.4
20260905154205 81 55 4.0 7.0 0.00 0.00 0.00 67 1010.4
20260905153705 81 46 3.0 12.0 0.00 0.00 0.00 64 1010.3
20260905153205 81 13 3.0 8.0 0.00 0.00 0.00 63 1010.4
20260905152205 82 29 3.0 6.0 0.00 0.00 0.00 67 1010.4
20260905151705 82 16 3.0 9.0 0.00 0.00 0.00 63 1010.5
20260905151205 82 16 2.0 7.0 0.00 0.00 0.00 67 1010.4
20260905150705 82 25 1.0 3.0 0.00 0.00 0.00 66 1010.5
20260905150204 82 24 4.0 9.0 0.00 0.00 0.00 66 1010.6
20260905145704 82 22 2.0 9.0 0.00 0.00 0.00 62 1010.5
20260905145204 82 64 5.0 9.0 0.00 0.00 0.00 64 1010.5
20260905144705 82 54 5.0 13.0 0.00 0.00 0.00 63 1010.4
20260905143705 82 58 6.0 10.0 0.00 0.00 0.00 68 1010.1
20260905143205 82 23 6.0 12.0 0.00 0.00 0.00 65 1010.0
20260905142705 82 52 4.0 12.0 0.00 0.00 0.00 66 1010.0
20260905141705 82 60 5.0 10.0 0.00 0.00 0.00 69 1010.2
20260905141205 82 353 4.0 10.0 0.00 0.00 0.00 69 1010.2
20260905140704 82 12 6.0 12.0 0.00 0.00 0.00 68 1010.1
20260905140205 82 50 6.0 10.0 0.00 0.00 0.00 70 1010.0
20260905135705 82 4 4.0 8.0 0.00 0.00 0.00 67 1010.1
20260905135204 81 16 5.0 12.0 0.00 0.00 0.00 70 1010.0
20260905134705 81 50 4.0 9.0 0.00 0.00 0.00 71 1010.0
20260905134205 80 23 5.0 9.0 0.00 0.00 0.00 76 1009.9
20260905133705 80 67 3.0 7.0 0.00 0.00 0.00 75 1009.9
20260905133205 79 45 3.0 8.0 0.00 0.00 0.00 76 1010.1
20260905132705 79 5 3.0 7.0 0.00 0.00 0.00 75 1010.0
20260905132205 79 45 5.0 10.0 0.00 0.00 0.00 80 1009.9
20260905131205 78 54 5.0 9.0 0.00 0.00 0.00 78 1009.7
20260905130204 78 58 3.0 6.0 0.00 0.00 0.00 77 1009.7
20260905125705 79 52 4.0 8.0 0.00 0.00 0.00 77 1009.7
20260905125205 79 54 4.0 9.0 0.00 0.00 0.00 76 1009.8
20260905124704 79 12 3.0 8.0 0.00 0.00 0.00 76 1009.6
20260905124205 79 19 5.0 10.0 0.00 0.00 0.00 78 1009.7
20260905123705 79 67 4.0 9.0 0.00 0.00 0.00 77 1009.6
20260905122705 79 30 3.0 7.0 0.00 0.00 0.00 80 1009.5
20260905122205 79 33 5.0 8.0 0.00 0.00 0.00 82 1009.6
20260905121704 78 42 5.0 9.0 0.00 0.00 0.00 82 1009.5
20260905121205 78 61 3.0 6.0 0.00 0.00 0.00 83 1009.3
20260905120705 78 56 5.0 9.0 0.00 0.00 0.00 83 1009.3
20260905120205 78 37 4.0 6.0 0.00 0.00 0.00 84 1009.5
20260905115705 78 36 4.0 8.0 0.00 0.00 0.00 86 1009.4
20260905115205 78 34 2.0 5.0 0.00 0.00 0.00 86 1009.4
20260905114704 77 13 5.0 9.0 0.00 0.00 0.00 86 1009.4
20260905114204 77 51 4.0 9.0 0.00 0.00 0.00 87 1009.3
20260905112705 76 12 2.0 5.0 0.00 0.00 0.00 87 1009.0
20260905111704 76 333 3.0 8.0 0.00 0.00 0.00 87 1009.0
20260905111205 76 0 4.0 8.0 0.00 0.00 0.00 87 1009.0
20260905110205 76 7 2.0 3.0 0.00 0.00 0.00 88 1008.9
20260905105205 76 347 2.0 5.0 0.00 0.00 0.00 87 1008.6
20260905104705 76 9 1.0 5.0 0.00 0.00 0.00 87 1008.7
20260905104204 76 357 2.0 5.0 0.00 0.00 0.00 87 1008.8
20260905103205 76 355 3.0 6.0 0.00 0.00 0.00 87 1008.8
20260905102705 76 350 2.0 3.0 0.00 0.00 0.00 87 1008.5
20260905102205 76 339 3.0 5.0 0.00 0.00 0.00 87 1008.4
20260905101705 76 0 2.0 5.0 0.00 0.00 0.00 87 1008.3
20260905101205 76 352 3.0 6.0 0.00 0.00 0.00 86 1008.3
20260905100705 76 353 2.0 5.0 0.00 0.00 0.00 86 1008.3
20260905100204 76 345 2.0 6.0 0.00 0.00 0.00 86 1008.3
20260905095705 76 0 1.0 5.0 0.00 0.00 0.00 87 1008.2
20260905095204 76 5 2.0 5.0 0.00 0.00 0.00 87 1008.1
20260905094705 76 353 2.0 5.0 0.00 0.00 0.00 87 1008.1
20260905094205 76 352 3.0 5.0 0.00 0.00 0.00 87 1008.1
20260905093205 76 6 2.0 3.0 0.00 0.00 0.00 86 1008.0
20260905092705 76 4 2.0 3.0 0.00 0.00 0.00 86 1007.9
20260905092205 76 351 2.0 3.0 0.00 0.00 0.00 86 1008.0
20260905091705 76 8 2.0 3.0 0.00 0.00 0.00 86 1008.1
20260905091204 76 353 2.0 3.0 0.00 0.00 0.00 86 1008.1
20260905090705 76 354 1.0 3.0 0.00 0.00 0.00 86 1008.1
20260905085704 76 337 1.0 3.0 0.00 0.00 0.00 85 1008.2
20260905085204 76 355 2.0 3.0 0.00 0.00 0.00 85 1008.1
20260905084705 76 328 1.0 3.0 0.00 0.00 0.00 85 1008.1
20260905084205 76 351 1.0 3.0 0.00 0.00 0.00 85 1008.1
20260905083705 76 303 2.0 3.0 0.00 0.00 0.00 85 1008.0
20260905083205 76 303 2.0 5.0 0.00 0.00 0.00 85 1008.0
20260905082704 76 313 1.0 5.0 0.00 0.00 0.00 85 1008.0
20260905082205 76 337 2.0 9.0 0.00 0.00 0.00 85 1008.1
20260905081704 76 312 4.0 9.0 0.00 0.00 0.00 85 1008.1
20260905081204 77 352 3.0 9.0 0.00 0.00 0.00 85 1008.2
20260905080705 77 347 5.0 9.0 0.00 0.00 0.00 85 1008.4
20260905080205 77 341 2.0 9.0 0.00 0.00 0.00 85 1008.4
20260905075705 77 335 2.0 6.0 0.00 0.00 0.00 85 1008.5
20260905075204 77 330 2.0 10.0 0.00 0.00 0.00 86 1008.4
20260905074704 77 356 2.0 5.0 0.00 0.00 0.00 86 1008.5
20260905073704 77 336 2.0 7.0 0.00 0.00 0.00 86 1008.5
20260905072705 77 14 2.0 5.0 0.00 0.00 0.00 85 1008.6
20260905071705 77 305 2.0 8.0 0.00 0.00 0.00 86 1008.6
20260905071204 77 297 4.0 12.0 0.00 0.00 0.00 86 1008.6
20260905070705 77 196 1.0 8.0 0.00 0.00 0.00 86 1008.6
20260905070204 77 338 3.0 8.0 0.00 0.00 0.00 86 1008.6
20260905065704 77 324 3.0 12.0 0.00 0.00 0.00 86 1008.7
20260905065205 77 224 4.0 10.0 0.00 0.00 0.00 87 1008.8
20260905064705 76 273 3.0 7.0 0.00 0.00 0.00 87 1008.8
20260905064204 76 86 1.0 5.0 0.00 0.00 0.00 87 1008.8
20260905063704 76 271 5.0 8.0 0.00 0.00 0.00 87 1008.8
20260905063204 76 18 2.0 5.0 0.00 0.00 0.00 87 1008.9
20260905062204 76 243 2.0 10.0 0.00 0.01 0.00 87 1008.9
20260905061205 76 270 3.0 7.0 0.00 0.01 0.00 88 1009.0
20260905060205 76 243 2.0 6.0 0.00 0.01 0.00 88 1009.0
20260905055705 76 273 1.0 3.0 0.00 0.01 0.00 88 1009.0
20260905054704 76 233 0.0 3.0 0.00 0.03 0.00 88 1009.1
20260905054205 76 254 3.0 8.0 0.00 0.04 0.00 88 1009.2
20260905053705 76 313 2.0 6.0 0.00 0.04 0.00 89 1009.2
20260905053204 76 241 3.0 7.0 0.00 0.04 0.00 89 1009.3
20260905052705 76 259 2.0 5.0 0.00 0.04 0.00 89 1009.4
20260905052205 76 253 1.0 6.0 0.00 0.05 0.00 89 1009.4
20260905051705 76 243 2.0 5.0 0.00 0.06 0.00 89 1009.6
20260905050705 76 217 2.0 5.0 0.00 0.07 0.00 89 1009.6
20260905050205 76 217 1.0 3.0 0.00 0.08 0.00 89 1009.6
20260905045704 76 219 1.0 3.0 0.00 0.10 0.00 89 1009.6
20260905045204 76 242 2.0 5.0 0.00 0.13 0.00 89 1009.7
20260905044704 76 248 1.0 3.0 0.00 0.16 0.00 89 1009.7
20260905044204 76 194 1.0 3.0 0.00 0.23 0.00 89 1009.7
20260905042704 76 211 0.0 2.0 0.00 0.32 0.00 88 1009.7
20260905042205 76 296 0.0 3.0 0.00 0.32 0.00 88 1009.7
20260905041705 76 272 2.0 7.0 0.00 0.32 0.00 88 1009.8
20260905041204 77 286 2.0 3.0 0.00 0.32 0.00 88 1009.8
20260905040704 77 302 1.0 3.0 0.00 0.32 0.00 88 1009.9
20260905040205 77 235 1.0 3.0 0.00 0.32 0.00 88 1009.9
20260905035705 77 308 2.0 3.0 0.00 0.32 0.32 88 1010.0
20260905035205 77 274 1.0 7.0 0.00 0.32 0.32 88 1010.0
20260905034705 77 276 1.0 5.0 0.00 0.32 0.32 88 1010.0
20260905033705 77 230 2.0 7.0 0.00 0.32 0.32 87 1010.0
20260905033205 77 253 1.0 3.0 0.00 0.32 0.32 87 1010.0
20260905032205 77 238 2.0 3.0 0.00 0.32 0.32 87 1010.1
20260905031705 77 296 1.0 7.0 0.00 0.32 0.32 87 1010.0
20260905031204 77 282 0.0 3.0 0.00 0.32 0.32 87 1010.2
20260905030705 77 257 1.0 3.0 0.00 0.32 0.32 87 1010.2
20260905030205 77 300 1.0 6.0 0.00 0.32 0.32 87 1010.4
20260905025705 78 258 2.0 5.0 0.00 0.32 0.32 87 1010.3
20260905024704 78 232 3.0 7.0 0.00 0.32 0.32 87 1010.4
20260905023705 78 269 2.0 8.0 0.00 0.32 0.32 88 1010.4
20260905023204 78 261 3.0 6.0 0.00 0.32 0.32 88 1010.4
20260905022704 78 236 1.0 7.0 0.00 0.32 0.32 88 1010.4
20260905022204 78 224 1.0 7.0 0.00 0.32 0.32 88 1010.3
20260905021705 78 274 1.0 6.0 0.00 0.32 0.32 88 1010.4
20260905020205 78 306 2.0 3.0 0.00 0.32 0.32 90 1010.2
20260905015704 78 256 0.0 3.0 0.00 0.32 0.32 90 1010.2
20260905015205 78 259 1.0 5.0 0.00 0.32 0.32 90 1010.1
20260905014705 78 295 2.0 3.0 0.00 0.32 0.32 90 1010.0
20260905013705 78 238 3.0 7.0 0.00 0.32 0.32 90 1010.0
20260905013205 78 247 2.0 7.0 0.00 0.32 0.32 90 1010.0
20260905012705 78 234 3.0 7.0 0.00 0.32 0.32 90 1010.0
20260905012205 78 281 2.0 6.0 0.00 0.32 0.32 90 1009.9
20260905011704 78 247 4.0 6.0 0.00 0.32 0.32 90 1009.8
20260905005704 78 192 0.0 2.0 0.00 0.32 0.32 89 1009.9
20260905005205 78 178 0.0 0.0 0.00 0.32 0.32 89 1009.7
20260905004705 78 178 1.0 1.0 0.00 0.32 0.32 88 1009.7
20260905004204 78 178 1.0 3.0 0.00 0.32 0.32 88 1009.7
20260905003704 78 178 1.0 2.0 0.00 0.32 0.32 88 1009.5
20260905003205 79 178 1.0 2.0 0.00 0.32 0.32 88 1009.6
20260905002704 79 178 0.0 1.0 0.00 0.32 0.32 87 1009.6
20260905002205 79 178 0.0 2.0 0.00 0.32 0.32 87 1009.8
20260905001205 79 178 0.0 0.0 0.00 0.32 0.32 87 1009.7
20260905000704 79 178 0.0 0.0 0.00 0.32 0.32 87 1009.6
20260905000204 79 178 0.0 0.0 0.00 0.32 0.32 87 1009.5
20260904235705 79 178 0.0 0.0 0.00 0.32 0.32 86 1009.3
20260904235204 79 178 0.0 0.0 0.00 0.32 0.32 84 1009.3
20260904234704 80 178 0.0 0.0 0.00 0.32 0.32 84 1009.2
20260904233704 80 178 0.0 0.0 0.00 0.32 0.32 84 1009.1
20260904232705 80 178 0.0 0.0 0.00 0.32 0.32 84 1009.0
20260904232205 80 178 0.0 0.0 0.00 0.32 0.32 84 1009.2
20260904231705 81 178 0.0 0.0 0.00 0.32 0.32 84 1009.2
20260904231204 81 178 1.0 1.0 0.00 0.32 0.32 83 1009.4
20260904230704 81 178 0.0 1.0 0.00 0.32 0.32 83 1009.4
20260904230205 81 178 0.0 0.0 0.00 0.32 0.32 83 1009.5
20260904225705 81 178 0.0 2.0 0.00 0.32 0.32 83 1009.4
20260904225204 82 178 1.0 2.0 0.00 0.32 0.32 83 1009.4
20260904224704 82 178 1.0 2.0 0.00 0.32 0.32 83 1009.4
20260904224205 82 178 1.0 3.0 0.00 0.32 0.32 83 1009.5
20260904223705 82 178 1.0 3.0 0.00 0.32 0.32 82 1009.5
20260904223204 82 178 0.0 1.0 0.00 0.32 0.32 81 1009.6
20260904222704 82 178 1.0 2.0 0.00 0.32 0.32 81 1009.7
20260904221204 83 178 1.0 3.0 0.00 0.32 0.32 80 1010.2
20260904220704 83 202 2.0 3.0 0.00 0.32 0.32 79 1010.4
20260904215705 83 193 2.0 3.0 0.00 0.32 0.32 76 1010.4
20260904215205 83 176 2.0 3.0 0.00 0.32 0.32 75 1010.5
20260904214204 84 254 0.0 0.0 0.00 0.32 0.32 75 1010.6
20260904213205 85 143 0.0 1.0 0.00 0.32 0.32 73 1010.3
20260904212704 85 143 2.0 3.0 0.00 0.32 0.32 74 1010.1
20260904212204 86 167 1.0 3.0 0.00 0.32 0.32 72 1010.3
20260904211205 87 357 0.0 1.0 0.00 0.32 0.32 69 1010.5
20260904210704 87 354 1.0 3.0 0.00 0.32 0.32 69 1010.6
20260904210204 88 60 2.0 3.0 0.00 0.32 0.32 67 1010.6
20260904205704 88 0 1.0 3.0 0.00 0.32 0.32 70 1010.7
20260904205205 88 123 0.0 2.0 0.00 0.32 0.32 71 1010.7
20260904204704 89 123 1.0 2.0 0.00 0.32 0.32 69 1010.6
20260904203704 90 165 0.0 2.0 0.00 0.32 0.32 68 1010.5
20260904203205 90 163 3.0 5.0 0.00 0.32 0.32 69 1010.2
20260904202205 90 220 2.0 7.0 0.00 0.32 0.32 63 1010.4
20260904201705 91 205 5.0 5.0 0.00 0.32 0.32 65 1010.5
20260904200704 90 218 2.0 3.0 0.00 0.32 0.32 65 1010.7
20260904200204 90 202 3.0 3.0 0.00 0.32 0.32 61 1010.7
20260904194704 90 193 2.0 3.0 0.00 0.32 0.32 66 1010.5
20260904194204 90 150 2.0 5.0 0.00 0.32 0.32 69 1010.5
20260904193205 90 219 1.0 3.0 0.00 0.32 0.32 66 1010.7
20260904192705 90 199 2.0 3.0 0.00 0.32 0.32 67 1010.6
20260904192205 89 180 2.0 3.0 0.00 0.32 0.32 66 1010.6
20260904191704 89 186 2.0 5.0 0.00 0.32 0.32 67 1010.7
20260904191205 89 158 2.0 3.0 0.00 0.32 0.32 66 1010.8
20260904190705 89 181 3.0 3.0 0.00 0.32 0.32 63 1010.7
20260904190204 89 198 2.0 5.0 0.00 0.32 0.32 66 1010.8
20260904185705 89 232 3.0 5.0 0.00 0.32 0.32 67 1010.8
20260904185205 89 203 4.0 7.0 0.00 0.32 0.32 64 1010.9
20260904184704 89 228 1.0 8.0 0.00 0.32 0.32 64 1011.0
20260904184204 89 253 2.0 7.0 0.00 0.32 0.32 62 1011.1
20260904183704 89 291 3.0 7.0 0.00 0.32 0.32 65 1011.1
20260904183204 89 234 3.0 6.0 0.00 0.32 0.32 63 1011.2
20260904182704 89 223 1.0 3.0 0.00 0.32 0.32 68 1011.2
20260904182204 89 249 2.0 3.0 0.00 0.32 0.32 67 1011.2
20260904181704 88 221 2.0 7.0 0.00 0.32 0.32 67 1011.3
20260904181204 88 247 2.0 8.0 0.00 0.32 0.32 67 1011.4
20260904180204 88 235 1.0 3.0 0.00 0.32 0.32 67 1011.4
20260904175705 88 267 2.0 8.0 0.00 0.32 0.32 66 1011.4
20260904175205 87 350 2.0 5.0 0.00 0.32 0.32 67 1011.5
20260904174704 87 267 2.0 9.0 0.00 0.32 0.32 68 1011.5
20260904174204 87 356 3.0 6.0 0.00 0.32 0.32 66 1011.6
20260904173204 87 334 2.0 5.0 0.00 0.32 0.32 68 1011.6
20260904172704 87 343 2.0 8.0 0.00 0.32 0.32 67 1011.6
20260904171704 87 265 2.0 3.0 0.00 0.32 0.32 67 1011.6
20260904170704 86 267 3.0 8.0 0.00 0.32 0.32 69 1011.7
20260904170204 86 278 2.0 7.0 0.00 0.32 0.32 69 1011.8
20260904165704 86 227 3.0 5.0 0.00 0.32 0.32 68 1011.9
20260904165205 86 352 2.0 3.0 0.00 0.32 0.32 70 1012.0